Flag for Guinea-Bissau Weather past 2 weeks in Bissau, Guinea-Bissau

Now
75 °F

Duststorm.


Feels Like: 78 °F
Forecast: 68 / 99 °F
Wind: 6 mph from Northwest

Location: Bissau Aeroport

Current Time: Mar 1, 2015 at 1:03:32 AM

Latest Report: Mar 1, 2015 at 12:00 AM


Visibility: 1 mi

Pressure: 29.95 "Hg

Humidity: 57%

Dew point: 59 °F

Location of BissauLocation

Historic Weather in Bissau — Graph

°F

Bissau temperature yesterday

Maximum temperature yesterday: 95 °F (at 4:00 PM)
Minimum temperature yesterday: 72 °F (at 6:00 AM)
Average temperature yesterday: 83 °F

Past Weeks' High & Low Weather Summary

 TemperatureHumidityPressure
High140 °F (Feb 27, 7:00 AM)94% (Feb 16, 6:00 AM)29.95 "Hg (Feb 16, 6:00 AM)
Low63 °F (Feb 21, 6:00 AM)3% (Feb 27, 7:00 AM)29.68 "Hg (Feb 18, 4:00 PM)
Average83 °F36%29.84 "Hg
* Reported Feb 14 6:00 AM — Midnight between Feb 28 and Mar 1, Bissau, Weather by CustomWeather, © 2015

Note: Actual official high and low records may vary slightly from our data, if they occured in-between our weather recording intervals... More about our weather records

Advertising

Bissau weather history for previous 24 hours

 ConditionsComfort  
Time TempWeatherWind HumidityBarometerVisibility
12:00 AM
Sun, Mar 1
75 °FDuststorm.6 mph57%29.95 "Hg1 mi
11:00 PM
Sat, Feb 28
77 °FDuststorm.2 mph54%29.95 "Hg1 mi
7:00 PM86 °FDuststorm.5 mph29%29.83 "Hg1 mi
6:00 PM91 °FDuststorm.7 mph18%29.83 "Hg1 mi
5:00 PM95 °FDuststorm.2 mph16%29.83 "Hg1 mi
4:00 PM95 °FDuststorm.3 mph15%29.83 "Hg1 mi
3:00 PM93 °FDuststorm.7 mph14%29.86 "Hg1 mi
2:00 PM91 °FDuststorm.10 mph13%29.86 "Hg1 mi
1:00 PM90 °FDuststorm.10 mph13%29.89 "Hg1 mi
12:00 PM84 °FDuststorm.10 mph16%29.89 "Hg1 mi
11:00 AM81 °FDuststorm.13 mph16%29.92 "Hg1 mi
10:00 AM75 °FDuststorm.8 mph25%29.92 "Hg1 mi
9:00 AM73 °FDuststorm.7 mph27%29.89 "Hg1 mi
8:00 AM72 °FDuststorm.6 mph31%29.89 "Hg1 mi
7:00 AM72 °FDuststorm.7 mph36%29.86 "Hg1 mi
6:00 AM72 °FDuststorm.6 mph41%29.86 "Hg1 mi
5:00 AM73 °FDuststorm.7 mph50%29.86 "Hg1 mi
Weather by CustomWeather, © 2015

See weather overviewHow to use our weather pages